TimeCST,TemperatureF,Dew PointF,Humidity,Sea Level PressureIn,VisibilityMPH,Wind Direction,Wind SpeedMPH,Gust SpeedMPH,PrecipitationIn,Events,Conditions,WindDirDegrees,DateUTC
12:15 AM,3.2,-4.0,72,29.88,10.0,Calm,Calm,-,N/A,,Clear,0,2013-02-05 06:15:00
12:35 AM,1.4,-5.8,72,29.87,10.0,Calm,Calm,-,N/A,,Clear,0,2013-02-05 06:35:00
12:55 AM,3.2,-4.0,72,29.86,10.0,Calm,Calm,-,N/A,,Clear,0,2013-02-05 06:55:00
1:15 AM,1.4,-4.0,78,29.85,10.0,Calm,Calm,-,N/A,,Clear,0,2013-02-05 07:15:00
1:35 AM,1.4,-4.0,78,29.84,10.0,Calm,Calm,-,N/A,,Scattered Clouds,0,2013-02-05 07:35:00
1:55 AM,3.2,-4.0,72,29.84,10.0,Calm,Calm,-,N/A,,Scattered Clouds,0,2013-02-05 07:55:00
2:15 AM,3.2,-4.0,72,29.85,10.0,Calm,Calm,-,N/A,,Scattered Clouds,0,2013-02-05 08:15:00
2:35 AM,3.2,-2.2,78,29.85,10.0,Calm,Calm,-,N/A,,Mostly Cloudy,0,2013-02-05 08:35:00
2:55 AM,5.0,-2.2,72,29.84,10.0,South,3.5,-,N/A,,Mostly Cloudy,180,2013-02-05 08:55:00
3:15 AM,8.6,1.4,73,29.83,10.0,Calm,Calm,-,N/A,,Overcast,0,2013-02-05 09:15:00
3:35 AM,8.6,1.4,73,29.82,10.0,Calm,Calm,-,N/A,,Overcast,0,2013-02-05 09:35:00
3:55 AM,8.6,1.4,73,29.80,10.0,SSE,4.6,-,N/A,,Overcast,160,2013-02-05 09:55:00
4:15 AM,12.2,5.0,73,29.79,7.0,South,5.8,-,N/A,Snow,Light Snow,190,2013-02-05 10:15:00
4:35 AM,14.0,8.6,79,29.78,1.8,South,6.9,-,N/A,Snow,Light Snow,190,2013-02-05 10:35:00
4:55 AM,14.0,8.6,79,29.77,1.5,South,8.1,-,N/A,Snow,Light Snow,180,2013-02-05 10:55:00
5:15 AM,14.0,10.4,86,29.75,4.0,South,8.1,-,N/A,Snow,Light Snow,190,2013-02-05 11:15:00
5:35 AM,14.0,10.4,86,29.73,10.0,South,6.9,-,N/A,Snow,Light Snow,170,2013-02-05 11:35:00
5:55 AM,15.8,10.4,79,29.74,10.0,SSW,9.2,-,N/A,Snow,Light Snow,200,2013-02-05 11:55:00
6:15 AM,15.8,12.2,86,29.73,10.0,SSW,6.9,-,N/A,,Overcast,200,2013-02-05 12:15:00
6:35 AM,17.6,12.2,79,29.72,10.0,South,9.2,-,N/A,,Overcast,190,2013-02-05 12:35:00
6:55 AM,17.6,12.2,79,29.72,10.0,SSW,9.2,-,N/A,,Overcast,210,2013-02-05 12:55:00
7:15 AM,17.6,12.2,79,29.72,10.0,SW,10.4,-,N/A,,Overcast,220,2013-02-05 13:15:00
7:35 AM,17.6,12.2,79,29.71,10.0,SSW,8.1,-,N/A,,Overcast,210,2013-02-05 13:35:00
7:55 AM,17.6,12.2,79,29.71,10.0,SSW,9.2,-,N/A,,Overcast,210,2013-02-05 13:55:00
8:15 AM,19.4,14.0,80,29.71,10.0,SSW,11.5,-,N/A,,Overcast,210,2013-02-05 14:15:00
8:35 AM,19.4,14.0,80,29.70,7.0,SSW,9.2,-,N/A,,Overcast,200,2013-02-05 14:35:00
8:55 AM,19.4,14.0,80,29.72,1.2,SW,6.9,-,N/A,Snow,Light Snow,220,2013-02-05 14:55:00
9:15 AM,19.4,14.0,80,29.71,5.0,SW,6.9,-,N/A,,Haze,220,2013-02-05 15:15:00
9:35 AM,21.2,14.0,74,29.72,10.0,SSW,5.8,-,N/A,,Overcast,210,2013-02-05 15:35:00
9:55 AM,21.2,14.0,74,29.72,10.0,SW,5.8,-,N/A,,Overcast,220,2013-02-05 15:55:00
10:15 AM,21.2,15.8,80,29.72,10.0,SW,6.9,-,N/A,,Overcast,220,2013-02-05 16:15:00
10:35 AM,23.0,15.8,74,29.73,10.0,SSW,5.8,-,N/A,,Overcast,210,2013-02-05 16:35:00
10:55 AM,23.0,17.6,80,29.73,10.0,SW,4.6,-,N/A,,Overcast,230,2013-02-05 16:55:00
11:15 AM,24.8,17.6,74,29.73,10.0,West,8.1,-,N/A,,Overcast,260,2013-02-05 17:15:00
11:35 AM,26.6,19.4,74,29.73,7.0,West,10.4,-,N/A,,Overcast,270,2013-02-05 17:35:00
11:55 AM,26.6,19.4,74,29.73,7.0,West,8.1,-,N/A,,Overcast,280,2013-02-05 17:55:00
12:15 PM,28.4,21.2,74,29.73,7.0,WNW,8.1,-,N/A,,Overcast,290,2013-02-05 18:15:00
12:35 PM,26.6,21.2,80,29.73,5.0,WNW,10.4,-,N/A,,Haze,290,2013-02-05 18:35:00
12:55 PM,28.4,21.2,74,29.74,7.0,WNW,6.9,-,N/A,,Overcast,290,2013-02-05 18:55:00
1:15 PM,28.4,21.2,74,29.75,7.0,WNW,10.4,-,N/A,,Overcast,300,2013-02-05 19:15:00
1:35 PM,28.4,19.4,69,29.76,10.0,NW,10.4,-,N/A,,Overcast,320,2013-02-05 19:35:00
1:55 PM,28.4,21.2,74,29.77,10.0,WNW,11.5,16.1,N/A,,Overcast,300,2013-02-05 19:55:00
2:15 PM,28.4,21.2,74,29.77,10.0,NW,10.4,-,N/A,,Overcast,320,2013-02-05 20:15:00
2:35 PM,28.4,21.2,74,29.78,10.0,WNW,8.1,-,N/A,,Overcast,300,2013-02-05 20:35:00
2:55 PM,28.4,19.4,69,29.80,10.0,NW,8.1,-,N/A,,Overcast,310,2013-02-05 20:55:00
3:15 PM,28.4,19.4,69,29.81,10.0,NW,8.1,-,N/A,,Overcast,320,2013-02-05 21:15:00
3:35 PM,28.4,19.4,69,29.82,10.0,NW,11.5,19.6,N/A,,Overcast,320,2013-02-05 21:35:00
3:55 PM,26.6,17.6,69,29.84,10.0,NNW,10.4,17.3,N/A,,Overcast,330,2013-02-05 21:55:00
4:15 PM,26.6,17.6,69,29.85,10.0,NNW,10.4,-,N/A,,Overcast,340,2013-02-05 22:15:00
4:35 PM,26.6,15.8,64,29.86,10.0,NNW,8.1,-,N/A,,Overcast,330,2013-02-05 22:35:00
5:15 PM,26.6,14.0,59,29.89,10.0,NW,8.1,-,N/A,,Overcast,320,2013-02-05 23:15:00
5:35 PM,26.6,14.0,59,29.91,10.0,NW,6.9,-,N/A,,Overcast,320,2013-02-05 23:35:00
5:55 PM,26.6,14.0,59,29.92,10.0,NW,6.9,-,N/A,,Overcast,310,2013-02-05 23:55:00
6:35 PM,26.6,14.0,59,29.94,10.0,NW,8.1,-,N/A,,Overcast,320,2013-02-06 00:35:00
6:55 PM,24.8,12.2,59,29.96,10.0,NW,8.1,-,N/A,,Overcast,320,2013-02-06 00:55:00
7:15 PM,24.8,12.2,59,29.98,10.0,NW,9.2,-,N/A,,Overcast,320,2013-02-06 01:15:00
7:35 PM,23.0,12.2,63,29.98,10.0,NNW,5.8,-,N/A,,Overcast,330,2013-02-06 01:35:00
7:55 PM,23.0,12.2,63,29.99,10.0,NNW,5.8,-,N/A,,Mostly Cloudy,330,2013-02-06 01:55:00
8:15 PM,23.0,12.2,63,30.01,10.0,WNW,4.6,-,N/A,,Mostly Cloudy,300,2013-02-06 02:15:00
8:35 PM,21.2,12.2,68,30.01,10.0,WNW,4.6,-,N/A,,Mostly Cloudy,290,2013-02-06 02:35:00
8:55 PM,21.2,12.2,68,30.02,10.0,WNW,4.6,-,N/A,,Scattered Clouds,290,2013-02-06 02:55:00
9:15 PM,19.4,10.4,68,30.02,10.0,WNW,4.6,-,N/A,,Clear,290,2013-02-06 03:15:00
9:35 PM,19.4,10.4,68,30.03,10.0,West,4.6,-,N/A,,Clear,280,2013-02-06 03:35:00
9:55 PM,15.8,8.6,73,30.04,10.0,West,4.6,-,N/A,,Clear,270,2013-02-06 03:55:00
10:15 PM,15.8,10.4,79,30.04,10.0,West,4.6,-,N/A,,Clear,280,2013-02-06 04:15:00
10:35 PM,14.0,8.6,79,30.05,10.0,Calm,Calm,-,N/A,,Clear,0,2013-02-06 04:35:00
10:55 PM,14.0,8.6,79,30.05,10.0,Calm,Calm,-,N/A,,Clear,0,2013-02-06 04:55:00
11:15 PM,10.4,6.8,85,30.06,10.0,Calm,Calm,-,N/A,,Clear,0,2013-02-06 05:15:00
11:35 PM,12.2,8.6,85,30.08,10.0,NNW,3.5,-,N/A,,Clear,330,2013-02-06 05:35:00
11:55 PM,10.4,6.8,85,30.08,10.0,Calm,Calm,-,N/A,,Clear,0,2013-02-06 05:55:00